| time (UTC) | temp F | wind direction | speed MPH | gust MPH | rain 1hr in | rain 24hr in | rain mn in | humidity % | barometer mb |
| 20260504050503 | 56 | 34 | 27.0 | 42.0 | 0.00 | 0.00 | 0.00 | 35 | 1009.3 |
| 20260504050010 | 57 | 50 | 31.0 | 42.0 | 0.00 | 0.00 | 0.00 | 35 | 1009.1 |
| 20260504045504 | 57 | 35 | 30.0 | 37.0 | 0.00 | 0.00 | 0.00 | 36 | 1008.8 |
| 20260504045006 | 57 | 47 | 26.0 | 35.0 | 0.00 | 0.00 | 0.00 | 39 | 1008.6 |
| 20260504044512 | 56 | 48 | 14.0 | 18.0 | 0.00 | 0.00 | 0.00 | 42 | 1008.5 |
| 20260504044007 | 55 | 51 | 11.0 | 15.0 | 0.00 | 0.00 | 0.00 | 44 | 1008.2 |
| 20260504043505 | 55 | 38 | 11.0 | 15.0 | 0.00 | 0.00 | 0.00 | 44 | 1008.1 |
| 20260504043017 | 55 | 53 | 11.0 | 12.0 | 0.00 | 0.00 | 0.00 | 44 | 1008.0 |
| 20260504042505 | 55 | 57 | 10.0 | 12.0 | 0.00 | 0.00 | 0.00 | 43 | 1007.9 |
| 20260504042005 | 55 | 51 | 10.0 | 12.0 | 0.00 | 0.00 | 0.00 | 43 | 1007.8 |
| 20260504041522 | 55 | 58 | 9.0 | 11.0 | 0.00 | 0.00 | 0.00 | 43 | 1007.8 |
| 20260504041007 | 55 | 51 | 9.0 | 11.0 | 0.00 | 0.00 | 0.00 | 42 | 1007.7 |
| 20260504040507 | 55 | 51 | 8.0 | 11.0 | 0.00 | 0.00 | 0.00 | 42 | 1007.6 |
| 20260504040020 | 55 | 64 | 9.0 | 11.0 | 0.00 | 0.00 | 0.00 | 42 | 1007.5 |
| 20260504035508 | 55 | 58 | 9.0 | 11.0 | 0.00 | 0.00 | 0.00 | 42 | 1007.5 |
| 20260504035008 | 55 | 50 | 9.0 | 12.0 | 0.00 | 0.00 | 0.00 | 42 | 1007.5 |
| 20260504034511 | 55 | 49 | 9.0 | 13.0 | 0.00 | 0.00 | 0.00 | 41 | 1007.5 |
| 20260504034004 | 55 | 55 | 10.0 | 13.0 | 0.00 | 0.00 | 0.00 | 41 | 1007.5 |
| 20260504033504 | 55 | 53 | 10.0 | 12.0 | 0.00 | 0.00 | 0.00 | 42 | 1007.3 |
| 20260504033014 | 55 | 57 | 10.0 | 12.0 | 0.00 | 0.00 | 0.00 | 41 | 1007.2 |
| 20260504032506 | 55 | 74 | 8.0 | 10.0 | 0.00 | 0.00 | 0.00 | 40 | 1007.2 |
| 20260504032005 | 56 | 60 | 9.0 | 10.0 | 0.00 | 0.00 | 0.00 | 38 | 1007.1 |
| 20260504031518 | 57 | 53 | 9.0 | 10.0 | 0.00 | 0.00 | 0.00 | 37 | 1007.1 |
| 20260504031006 | 59 | 57 | 8.0 | 12.0 | 0.00 | 0.00 | 0.00 | 35 | 1007.0 |
| 20260504030508 | 60 | 58 | 10.0 | 12.0 | 0.00 | 0.00 | 0.00 | 34 | 1006.8 |
| 20260504030025 | 60 | 55 | 11.0 | 12.0 | 0.00 | 0.00 | 0.00 | 33 | 1006.7 |
| 20260504025507 | 60 | 47 | 10.0 | 12.0 | 0.00 | 0.00 | 0.00 | 32 | 1006.6 |
| 20260504025009 | 62 | 40 | 8.0 | 9.0 | 0.00 | 0.00 | 0.00 | 29 | 1006.6 |
| 20260504024509 | 64 | 45 | 7.0 | 8.0 | 0.00 | 0.00 | 0.00 | 27 | 1006.6 |
| 20260504024004 | 64 | 41 | 6.0 | 10.0 | 0.00 | 0.00 | 0.00 | 25 | 1006.6 |
| 20260504023502 | 66 | 48 | 5.0 | 10.0 | 0.00 | 0.00 | 0.00 | 25 | 1006.4 |
| 20260504023013 | 67 | 30 | 7.0 | 10.0 | 0.00 | 0.00 | 0.00 | 24 | 1006.4 |
| 20260504022504 | 67 | 6 | 6.0 | 13.0 | 0.00 | 0.00 | 0.00 | 24 | 1006.4 |
| 20260504022006 | 68 | 15 | 9.0 | 13.0 | 0.00 | 0.00 | 0.00 | 24 | 1006.3 |
| 20260504021513 | 68 | 20 | 10.0 | 15.0 | 0.00 | 0.00 | 0.00 | 23 | 1006.4 |
| 20260504021005 | 69 | 31 | 11.0 | 15.0 | 0.00 | 0.00 | 0.00 | 23 | 1006.4 |
| 20260504020507 | 69 | 30 | 11.0 | 15.0 | 0.00 | 0.00 | 0.00 | 22 | 1006.4 |
| 20260504020023 | 70 | 12 | 10.0 | 15.0 | 0.00 | 0.00 | 0.00 | 22 | 1006.4 |
| 20260504015508 | 71 | 18 | 11.0 | 16.0 | 0.00 | 0.00 | 0.00 | 21 | 1006.4 |
| 20260504015012 | 71 | 2 | 12.0 | 16.0 | 0.00 | 0.00 | 0.00 | 21 | 1006.4 |
| 20260504014525 | 72 | 8 | 11.0 | 15.0 | 0.00 | 0.00 | 0.00 | 21 | 1006.5 |
| 20260504014009 | 72 | 23 | 10.0 | 17.0 | 0.00 | 0.00 | 0.00 | 20 | 1006.5 |
| 20260504013509 | 72 | 4 | 14.0 | 17.0 | 0.00 | 0.00 | 0.00 | 20 | 1006.5 |
| 20260504013009 | 73 | 18 | 12.0 | 19.0 | 0.00 | 0.00 | 0.00 | 20 | 1006.5 |
| 20260504012502 | 73 | 359 | 13.0 | 20.0 | 0.00 | 0.00 | 0.00 | 19 | 1006.5 |
| 20260504012004 | 73 | 358 | 14.0 | 20.0 | 0.00 | 0.00 | 0.00 | 19 | 1006.6 |
| 20260504011513 | 73 | 1 | 14.0 | 19.0 | 0.00 | 0.00 | 0.00 | 19 | 1006.6 |
| 20260504011003 | 73 | 12 | 11.0 | 18.0 | 0.00 | 0.00 | 0.00 | 19 | 1006.6 |
| 20260504010508 | 74 | 30 | 12.0 | 20.0 | 0.00 | 0.00 | 0.00 | 19 | 1006.6 |
| 20260504010016 | 74 | 360 | 15.0 | 20.0 | 0.00 | 0.00 | 0.00 | 19 | 1006.7 |
| 20260504005507 | 74 | 1 | 15.0 | 19.0 | 0.00 | 0.00 | 0.00 | 19 | 1006.7 |
| 20260504005008 | 74 | 10 | 12.0 | 19.0 | 0.00 | 0.00 | 0.00 | 19 | 1006.7 |
| 20260504004533 | 74 | 1 | 13.0 | 19.0 | 0.00 | 0.00 | 0.00 | 19 | 1006.8 |
| 20260504004009 | 74 | 343 | 10.0 | 21.0 | 0.00 | 0.00 | 0.00 | 18 | 1006.8 |
| 20260504003510 | 74 | 3 | 13.0 | 21.0 | 0.00 | 0.00 | 0.00 | 19 | 1006.8 |
| 20260504003025 | 75 | 356 | 16.0 | 21.0 | 0.00 | 0.00 | 0.00 | 19 | 1006.8 |
| 20260504002509 | 75 | 352 | 12.0 | 19.0 | 0.00 | 0.00 | 0.00 | 18 | 1006.8 |
| 20260504002009 | 75 | 359 | 11.0 | 19.0 | 0.00 | 0.00 | 0.00 | 18 | 1007.0 |
| 20260504001509 | 75 | 1 | 11.0 | 19.0 | 0.00 | 0.00 | 0.00 | 18 | 1007.0 |
| 20260504001002 | 75 | 343 | 13.0 | 17.0 | 0.00 | 0.00 | 0.00 | 18 | 1006.9 |
| 20260504000504 | 75 | 12 | 14.0 | 19.0 | 0.00 | 0.00 | 0.00 | 18 | 1006.9 |
| 20260504000015 | 75 | 359 | 11.0 | 22.0 | 0.00 | 0.00 | 0.00 | 18 | 1007.0 |
| 20260503235506 | 75 | 359 | 16.0 | 22.0 | 0.00 | 0.00 | 0.00 | 17 | 1007.0 |
| 20260503235007 | 75 | 328 | 12.0 | 22.0 | 0.00 | 0.00 | 0.00 | 18 | 1006.9 |
| 20260503234523 | 75 | 336 | 14.0 | 22.0 | 0.00 | 0.00 | 0.00 | 18 | 1006.7 |
| 20260503234006 | 75 | 1 | 8.0 | 24.0 | 0.00 | 0.00 | 0.00 | 18 | 1007.0 |
| 20260503233505 | 75 | 352 | 12.0 | 24.0 | 0.00 | 0.00 | 0.00 | 18 | 1007.0 |
| 20260503233023 | 75 | 359 | 17.0 | 24.0 | 0.00 | 0.00 | 0.00 | 18 | 1007.0 |
| 20260503232510 | 75 | 8 | 10.0 | 21.0 | 0.00 | 0.00 | 0.00 | 19 | 1007.0 |
| 20260503232008 | 75 | 1 | 11.0 | 21.0 | 0.00 | 0.00 | 0.00 | 18 | 1007.1 |
| 20260503231526 | 75 | 13 | 16.0 | 27.0 | 0.00 | 0.00 | 0.00 | 18 | 1007.0 |
| 20260503231009 | 75 | 360 | 18.0 | 27.0 | 0.00 | 0.00 | 0.00 | 18 | 1007.1 |
| 20260503230508 | 75 | 340 | 13.0 | 22.0 | 0.00 | 0.00 | 0.00 | 18 | 1007.1 |
| 20260503230012 | 75 | 356 | 15.0 | 22.0 | 0.00 | 0.00 | 0.00 | 17 | 1007.2 |
| 20260503225505 | 75 | 1 | 18.0 | 22.0 | 0.00 | 0.00 | 0.00 | 18 | 1007.2 |
| 20260503225009 | 75 | 321 | 13.0 | 19.0 | 0.00 | 0.00 | 0.00 | 17 | 1007.2 |
| 20260503224517 | 75 | 353 | 11.0 | 21.0 | 0.00 | 0.00 | 0.00 | 17 | 1007.4 |
| 20260503224008 | 75 | 359 | 16.0 | 21.0 | 0.00 | 0.00 | 0.00 | 16 | 1007.4 |
| 20260503223508 | 75 | 26 | 9.0 | 17.0 | 0.00 | 0.00 | 0.00 | 15 | 1007.4 |
| 20260503223021 | 75 | 330 | 12.0 | 23.0 | 0.00 | 0.00 | 0.00 | 16 | 1007.6 |
| 20260503222506 | 75 | 1 | 14.0 | 23.0 | 0.00 | 0.00 | 0.00 | 15 | 1007.6 |
| 20260503222012 | 75 | 6 | 16.0 | 22.0 | 0.00 | 0.00 | 0.00 | 15 | 1007.6 |
| 20260503221527 | 75 | 325 | 15.0 | 23.0 | 0.00 | 0.00 | 0.00 | 15 | 1007.7 |
| 20260503221009 | 76 | 334 | 11.0 | 23.0 | 0.00 | 0.00 | 0.00 | 15 | 1007.7 |
| 20260503220514 | 76 | 317 | 11.0 | 22.0 | 0.00 | 0.00 | 0.00 | 15 | 1007.7 |
| 20260503220028 | 75 | 300 | 14.0 | 20.0 | 0.00 | 0.00 | 0.00 | 14 | 1007.8 |
| 20260503215510 | 75 | 334 | 9.0 | 24.0 | 0.00 | 0.00 | 0.00 | 14 | 1007.8 |
| 20260503215006 | 75 | 352 | 16.0 | 24.0 | 0.00 | 0.00 | 0.00 | 14 | 1007.8 |
| 20260503214518 | 75 | 359 | 13.0 | 19.0 | 0.00 | 0.00 | 0.00 | 16 | 1007.9 |
| 20260503214005 | 75 | 341 | 12.0 | 22.0 | 0.00 | 0.00 | 0.00 | 16 | 1008.0 |
| 20260503213511 | 75 | 300 | 15.0 | 22.0 | 0.00 | 0.00 | 0.00 | 15 | 1008.0 |
| 20260503213021 | 75 | 310 | 16.0 | 24.0 | 0.00 | 0.00 | 0.00 | 15 | 1008.1 |
| 20260503212508 | 75 | 336 | 17.0 | 24.0 | 0.00 | 0.00 | 0.00 | 15 | 1008.1 |
| 20260503212012 | 75 | 333 | 12.0 | 24.0 | 0.00 | 0.00 | 0.00 | 16 | 1008.2 |
| 20260503211523 | 75 | 330 | 15.0 | 24.0 | 0.00 | 0.00 | 0.00 | 17 | 1008.3 |
| 20260503211016 | 75 | 304 | 10.0 | 18.0 | 0.00 | 0.00 | 0.00 | 17 | 1008.5 |
| 20260503210508 | 75 | 325 | 8.0 | 18.0 | 0.00 | 0.00 | 0.00 | 17 | 1008.5 |
| 20260503210026 | 75 | 306 | 10.0 | 25.0 | 0.00 | 0.00 | 0.00 | 18 | 1008.7 |
| 20260503205512 | 75 | 338 | 14.0 | 26.0 | 0.00 | 0.00 | 0.00 | 18 | 1008.8 |
| 20260503205008 | 75 | 305 | 14.0 | 26.0 | 0.00 | 0.00 | 0.00 | 17 | 1008.7 |
| 20260503204529 | 75 | 311 | 14.0 | 24.0 | 0.00 | 0.00 | 0.00 | 19 | 1008.9 |
| 20260503204016 | 75 | 295 | 11.0 | 26.0 | 0.00 | 0.00 | 0.00 | 17 | 1008.9 |
| 20260503203507 | 75 | 334 | 13.0 | 26.0 | 0.00 | 0.00 | 0.00 | 18 | 1009.1 |
| 20260503203020 | 75 | 313 | 14.0 | 26.0 | 0.00 | 0.00 | 0.00 | 19 | 1009.0 |
| 20260503202510 | 73 | 299 | 12.0 | 21.0 | 0.00 | 0.00 | 0.00 | 20 | 1009.2 |
| 20260503202010 | 73 | 293 | 16.0 | 24.0 | 0.00 | 0.00 | 0.00 | 19 | 1009.3 |
| 20260503201521 | 73 | 326 | 15.0 | 24.0 | 0.00 | 0.00 | 0.00 | 19 | 1009.3 |
| 20260503201004 | 74 | 309 | 15.0 | 23.0 | 0.00 | 0.00 | 0.00 | 19 | 1009.4 |
| 20260503200503 | 74 | 338 | 13.0 | 23.0 | 0.00 | 0.00 | 0.00 | 19 | 1009.3 |
| 20260503200008 | 74 | 317 | 17.0 | 23.0 | 0.00 | 0.00 | 0.00 | 19 | 1009.5 |
| 20260503195504 | 74 | 317 | 7.0 | 22.0 | 0.00 | 0.00 | 0.00 | 19 | 1009.6 |
| 20260503195005 | 73 | 345 | 13.0 | 22.0 | 0.00 | 0.00 | 0.00 | 20 | 1009.8 |
| 20260503194510 | 74 | 308 | 13.0 | 22.0 | 0.00 | 0.00 | 0.00 | 19 | 1009.9 |
| 20260503194004 | 74 | 348 | 13.0 | 22.0 | 0.00 | 0.00 | 0.00 | 20 | 1009.9 |
| 20260503193504 | 74 | 302 | 13.0 | 24.0 | 0.00 | 0.00 | 0.00 | 20 | 1009.9 |
| 20260503193035 | 73 | 318 | 14.0 | 24.0 | 0.00 | 0.00 | 0.00 | 20 | 1010.1 |
| 20260503192507 | 73 | 301 | 18.0 | 24.0 | 0.00 | 0.00 | 0.00 | 21 | 1010.2 |
| 20260503192008 | 73 | 297 | 16.0 | 24.0 | 0.00 | 0.00 | 0.00 | 21 | 1010.3 |
| 20260503191522 | 72 | 285 | 8.0 | 22.0 | 0.00 | 0.00 | 0.00 | 21 | 1010.2 |
| 20260503191010 | 73 | 349 | 16.0 | 20.0 | 0.00 | 0.00 | 0.00 | 21 | 1010.4 |
| 20260503190503 | 72 | 347 | 8.0 | 18.0 | 0.00 | 0.00 | 0.00 | 23 | 1010.4 |
| 20260503190004 | 72 | 302 | 8.0 | 27.0 | 0.00 | 0.00 | 0.00 | 23 | 1010.5 |
| 20260503185503 | 73 | 312 | 18.0 | 27.0 | 0.00 | 0.00 | 0.00 | 22 | 1010.8 |
| 20260503185003 | 73 | 307 | 10.0 | 19.0 | 0.00 | 0.00 | 0.00 | 23 | 1010.8 |
| 20260503184517 | 72 | 304 | 14.0 | 22.0 | 0.00 | 0.00 | 0.00 | 22 | 1010.9 |
| 20260503184008 | 73 | 336 | 12.0 | 22.0 | 0.00 | 0.00 | 0.00 | 23 | 1011.1 |
| 20260503183504 | 71 | 324 | 10.0 | 17.0 | 0.00 | 0.00 | 0.00 | 25 | 1011.1 |
| 20260503183013 | 71 | 310 | 8.0 | 16.0 | 0.00 | 0.00 | 0.00 | 25 | 1011.2 |
| 20260503182505 | 71 | 323 | 10.0 | 16.0 | 0.00 | 0.00 | 0.00 | 27 | 1011.3 |
| 20260503182009 | 70 | 325 | 8.0 | 14.0 | 0.00 | 0.00 | 0.00 | 27 | 1011.5 |
| 20260503181518 | 70 | 347 | 11.0 | 14.0 | 0.00 | 0.00 | 0.00 | 27 | 1011.5 |
| 20260503181008 | 70 | 313 | 9.0 | 12.0 | 0.00 | 0.00 | 0.00 | 30 | 1011.6 |
| 20260503180509 | 69 | 304 | 5.0 | 11.0 | 0.00 | 0.00 | 0.00 | 30 | 1011.6 |
| 20260503180026 | 69 | 349 | 7.0 | 10.0 | 0.00 | 0.00 | 0.00 | 31 | 1011.5 |
| 20260503175510 | 69 | 240 | 3.0 | 10.0 | 0.00 | 0.00 | 0.00 | 31 | 1011.7 |
| 20260503175003 | 69 | 339 | 3.0 | 10.0 | 0.00 | 0.00 | 0.00 | 31 | 1011.8 |
| 20260503174506 | 68 | 288 | 6.0 | 11.0 | 0.00 | 0.00 | 0.00 | 33 | 1012.0 |
| 20260503174003 | 68 | 342 | 5.0 | 11.0 | 0.00 | 0.00 | 0.00 | 34 | 1012.1 |
| 20260503173503 | 68 | 307 | 4.0 | 11.0 | 0.00 | 0.00 | 0.00 | 34 | 1012.1 |
| 20260503173022 | 68 | 290 | 6.0 | 8.0 | 0.00 | 0.00 | 0.00 | 39 | 1012.2 |
| 20260503172506 | 67 | 255 | 4.0 | 8.0 | 0.00 | 0.00 | 0.00 | 40 | 1012.1 |
| 20260503172004 | 67 | 330 | 3.0 | 9.0 | 0.00 | 0.00 | 0.00 | 40 | 1012.2 |
| 20260503171522 | 66 | 277 | 5.0 | 9.0 | 0.00 | 0.00 | 0.00 | 41 | 1012.2 |
| 20260503171008 | 65 | 172 | 3.0 | 11.0 | 0.00 | 0.00 | 0.00 | 42 | 1012.1 |
| 20260503170508 | 65 | 273 | 6.0 | 11.0 | 0.00 | 0.00 | 0.00 | 42 | 1012.1 |
| 20260503151004 | 54 | 240 | 8.0 | 14.0 | 0.00 | 0.00 | 0.00 | 63 | 1013.4 |
| 20260503150504 | 53 | 238 | 7.0 | 14.0 | 0.00 | 0.00 | 0.00 | 64 | 1013.4 |
| 20260503131012 | 39 | 271 | 3.0 | 4.0 | 0.00 | 0.00 | 0.00 | 83 | 1014.3 |
| 20260503130507 | 38 | 271 | 2.0 | 3.0 | 0.00 | 0.00 | 0.00 | 84 | 1014.2 |
| 20260503110503 | 40 | 229 | 4.0 | 6.0 | 0.00 | 0.00 | 0.00 | 79 | 1014.5 |
| 20260503090504 | 44 | 299 | 2.0 | 6.0 | 0.00 | 0.00 | 0.00 | 68 | 1014.8 |
| 20260503081515 | 49 | 110 | 0.0 | 5.0 | 0.00 | 0.00 | 0.00 | 62 | 1014.9 |
| 20260503081006 | 49 | 110 | 2.0 | 5.0 | 0.00 | 0.00 | 0.00 | 62 | 1014.9 |
| 20260503080505 | 49 | 130 | 3.0 | 5.0 | 0.00 | 0.00 | 0.00 | 62 | 1014.9 |
| 20260503072504 | 50 | 240 | 0.0 | 2.0 | 0.00 | 0.00 | 0.00 | 61 | 1015.0 |
| 20260503072005 | 50 | 217 | 1.0 | 3.0 | 0.00 | 0.00 | 0.00 | 60 | 1015.1 |
| 20260503071512 | 50 | 207 | 2.0 | 5.0 | 0.00 | 0.00 | 0.00 | 60 | 1015.1 |
| 20260503071004 | 50 | 166 | 3.0 | 5.0 | 0.00 | 0.00 | 0.00 | 62 | 1015.2 |
| 20260503070507 | 50 | 19 | 4.0 | 7.0 | 0.00 | 0.00 | 0.00 | 60 | 1015.3 |